Location: Quebec
(46.8000°N, 71.2500°W)
Time: 11:08:16
(UTC-04:00)

Tiangong 1 - Pass Details

Date: 11 October 2017
Orbit: 292 x 319 km, 42.8° (Epoch: 23 October)

Event Time Altitude Azimuth Distance (km) Brightness Sun altitude
Rises 19:31:52 0° 264° (W) 2,042 6.4 -15.7°
Reaches altitude 10° 19:33:59 10° 252° (WSW) 1,206 4.6 -16.0°
Maximum altitude 19:36:23 29° 189° (S) 602 2.0 -16.4°
Enters shadow 19:36:40 28° 176° (S) 613 1.9 -16.5°
